Regional Weather Roundup
Issued by NWS

Home | Current Version | Previous Version | Text Only | Print | Product List | Glossary Off
Versions: 1 2 3 4 5 6 7 8 9 10 11 12 13 14 15 16 17 18 19 20 21 22 23 24 25 26 27 28 29 30 31 32 33 34 35 36 37 38 39 40 41 42 43 44 45 46 47 48 49 50

000
ASUS45 KBOU 012207
RWRCO

WEATHER ROUNDUP FOR COLORADO
NATIONAL WEATHER SERVICE DENVER/BOULDER CO
300 PM MST SUN MAR 01 2015

NOTE: "FAIR" INDICATES FEW OR NO CLOUDS BELOW 12000 FEET WITH NO
SIGNIFICANT WEATHER AND/OR OBSTRUCTIONS TO VISIBILITY.

COZ001>005-013-030-031-012300-
...NORTHWEST COLORADO...

CITY           SKY/WX    TMP DP  RH WIND       PRES   REMARKS
CRAIG          PTSUNNY   31  23  72 CALM      30.09F
HAYDEN         PTSUNNY   32  21  64 CALM      30.09S
MEEKER         CLOUDY    34  27  75 CALM      30.06F
MOUNT WERNER   NOT AVBL
STEAMBOAT SPGS PTSUNNY   31  21  66 CALM      30.08S
WALDEN         PTSUNNY   30  21  69 CALM      30.05S
$$

COZ006>008-011-012300-
...WEST CENTRAL VALLEYS...

CITY           SKY/WX    TMP DP  RH WIND       PRES   REMARKS
GRAND JUNCTION CLOUDY    45  30  55 S5        30.05F
MONTROSE       CLOUDY    39  30  70 W6        30.08R
EAGLE          CLOUDY    39  25  56 SW14      30.09R
RIFLE          CLOUDY    44  24  45 SE3       30.06S
DELTA          CLOUDY    45  32  61 N8        30.08S
NUCLA          LGT RAIN  37  30  75 NW7       30.10S
$$

COZ017>023-064>068-012300-
...SOUTHWEST COLORADO...

CITY           SKY/WX    TMP DP  RH WIND       PRES   REMARKS
DURANGO        CLOUDY    35  32  88 NE5       30.08S WCI  31
CORTEZ         CLOUDY    40  35  83 CALM      30.05F
PAGOSA SPRINGS LGT SNOW  35  34  96 CALM      30.09S
TELLURIDE      LGT SNOW  32  30  94 W5        30.07R VSB 3/4 WCI  27
WOLF CREEK PAS HVY SNOW  21  21 100 SW25G37   30.11S VSB<1/4 WCI   4
$$

COZ009-010-012-014-032>034-037-058>063-012300-
...CENTRAL COLORADO...

CITY           SKY/WX    TMP DP  RH WIND       PRES   REMARKS
ASPEN          LGT SNOW  31  25  78 N5        30.07R WCI  26
BUENA VISTA    CLOUDY    36  22  57 W6        30.05S
COPPER MTN     LGT SNOW  23  14  68 W9G16     30.07S WCI  13
BERTHOUD PASS  LGT SNOW  12   7  79 MISG      30.07R
COTTONWOOD PAS LGT SNOW  32  23  69 CALM      30.07R
GUNNISON       CLOUDY    30  21  69 N6        30.11S WCI  24
KREMMLING      CLOUDY    36  19  51 SW13G20   30.06S
LEADVILLE      LGT SNOW  25  20  81 CALM      30.06R
SALIDA         CLOUDY    42  24  50 S5        30.11F
SUNLIGHT       LGT SNOW  27  23  86 CALM        N/A  VSB 3/4
WILKERSON PASS CLOUDY    27  18  69 SW3       30.10R
$$

COZ069>075-012300-
...SAN LUIS VALLEY/SANGRE DE CRISTO MOUNTAINS...

CITY           SKY/WX    TMP DP  RH WIND       PRES   REMARKS
ALAMOSA        CLOUDY    35  27  72 VRB3      30.08S
LA VETA PASS   CLOUDY    30  28  93 S9G23     30.10S WCI  22
SAGUACHE       CLOUDY    34  28  80 S7        30.09S WCI  28
$$

COZ035-036-038>040-012300-
...NORTHERN COLORADO FRONT RANGE...

CITY           SKY/WX    TMP DP  RH WIND       PRES   REMARKS
DENVER INTL AP CLOUDY    24  15  68 CALM      30.22S
DMNS CITY PARK   N/A     26  15  63 NE5       30.23S WCI  20
AURORA         MOSUNNY   26  15  63 NE5       30.22R WCI  20
FRONT RANGE AP NOT AVBL
ERIE MUNI ARPT CLOUDY    26  17  69 NE3       30.24R
BOULDER MUN AP CLOUDY    27  19  74 CALM      30.23S
CENTENNIAL     PTSUNNY   25  14  63 NE5       30.19R WCI  19
BROOMFIELD     NOT AVBL
FORT COLLINS   PTSUNNY   25  16  68 SE5       30.26S WCI  19
LONGMONT       CLOUDY    32  18  55 CALM      30.26S
$$

COZ041-046-047-076>085-087-088-012300-
...PIKES PEAK/PALMER DIVIDE AND SOUTHERN FOOTHILLS...

CITY           SKY/WX    TMP DP  RH WIND       PRES   REMARKS
COLO. SPRINGS  PTSUNNY   27  18  69 E6        30.18R FOG     WCI  20
A. F. ACADEMY  PTSUNNY   27  15  60 S7        30.14S WCI  20
ELLICOTT       NOT AVBL
FALCON         PTSUNNY   28  17  63 E7        30.15F WCI  21
FORT CARSON    PTSUNNY   26  18  74 S8        30.18R WCI  17
LIMON          CLOUDY    25  16  68 N9        30.20S WCI  15
MONUMENT HILL  CLOUDY    23  16  74 NE3       30.13S
TRINIDAD       CLOUDY    24  18  77 N12       30.19R WCI  13
$$

COZ042>045-048>051-090-091-012300-
...NORTHEAST COLORADO...

CITY           SKY/WX    TMP DP  RH WIND       PRES   REMARKS
GREELEY ARPT   CLOUDY    28  12  50 CALM      30.24S
AKRON          MOSUNNY   31  15  52 E6        30.23R WCI  25
BURLINGTON     CLOUDY    31  18  58 NE14      30.24S WCI  21
WRAY           SUNNY     37  14  38 NE5       30.27R
STERLING       MOSUNNY   32  18  55 NW5       30.26R WCI  27
HOLYOKE        NOT AVBL
FORT MORGAN    CLOUDY    31  15  50 CALM      30.26R
$$

COZ086-089-092>099-012300-
...SOUTHEAST COLORADO...

CITY           SKY/WX    TMP DP  RH WIND       PRES   REMARKS
PUEBLO         CLOUDY    27  18  69 S5        30.23S WCI  22
LA JUNTA       CLOUDY    30  20  66 E7        30.25S WCI  23
LAMAR          CLOUDY    30  21  69 E3        30.26R
SPRINGFIELD      N/A     27  19  72 N8        30.24R WCI  19
$$



USA.gov is the U.S. government's official web portal to all federal, state and local government web resources and services.